OK,124,94,626,124,2014-10-01T01:40:00,2,28071953,158536
OK,113,103,626,113,2014-10-01T01:45:00,1,28072396,158536
OK,113,103,626,113,2014-10-01T01:50:00,0,28072845,158536
OK,113,103,626,113,2014-10-01T01:55:00,0,28073292,158536
OK,113,103,626,113,2014-10-01T02:00:00,0,28073740,158536
OK,113,103,626,113,2014-10-01T02:05:00,0,28074058,158536
OK,113,103,626,113,2014-10-01T02:10:00,0,28074507,158536
OK,113,103,626,113,2014-10-01T02:15:00,0,28074947,158536
OK,113,103,626,113,2014-10-01T02:20:00,0,28075396,158536
OK,113,103,626,113,2014-10-01T02:25:00,0,28075845,158536
OK,113,103,626,113,2014-10-01T02:30:00,0,28076228,158536
OK,113,103,626,113,2014-10-01T02:35:00,0,28076677,158536
OK,113,103,626,113,2014-10-01T02:40:00,0,28077126,158536
OK,127,92,626,127,2014-10-01T02:45:00,1,28077575,158536
OK,127,92,626,127,2014-10-01T02:50:00,1,28077978,158536
OK,135,86,626,135,2014-10-01T02:55:00,2,28078427,158536
OK,135,86,626,135,2014-10-01T03:00:00,2,28078872,158536
OK,171,68,626,171,2014-10-01T03:05:00,3,28079320,158536
OK,137,85,626,137,2014-10-01T03:10:00,1,28079763,158536
OK,155,75,626,155,2014-10-01T03:15:00,3,28080212,158536
OK,115,101,626,115,2014-10-01T03:20:00,5,28080546,158536
OK,106,110,626,106,2014-10-01T03:25:00,0,28080995,158536
OK,120,97,626,120,2014-10-01T03:30:00,2,28081444,158536
OK,132,88,626,132,2014-10-01T03:35:00,7,28081891,158536
OK,136,86,626,136,2014-10-01T03:40:00,10,28082340,158536
OK,133,88,626,133,2014-10-01T03:45:00,9,28082773,158536
OK,126,93,626,126,2014-10-01T03:50:00,10,28083205,158536
OK,139,84,626,139,2014-10-01T03:55:00,7,28083654,158536
OK,135,86,626,135,2014-10-01T04:00:00,7,28084103,158536
OK,134,87,626,134,2014-10-01T04:05:00,6,28084544,158536
OK,150,78,626,150,2014-10-01T04:10:00,8,28084969,158536
OK,144,81,626,144,2014-10-01T04:15:00,12,28085418,158536
OK,140,83,626,140,2014-10-01T04:20:00,13,28085863,158536
OK,146,80,626,146,2014-10-01T04:25:00,17,28086312,158536
OK,144,81,626,144,2014-10-01T04:30:00,23,28086754,158536
OK,139,84,626,139,2014-10-01T04:35:00,18,28087203,158536
OK,155,75,626,155,2014-10-01T04:40:00,26,28087648,158536
OK,152,77,626,152,2014-10-01T04:45:00,29,28088097,158536
OK,149,78,626,149,2014-10-01T04:50:00,34,28088521,158536
OK,148,79,626,148,2014-10-01T04:55:00,33,28088970,158536
OK,153,76,626,153,2014-10-01T05:00:00,28,28089400,158536
OK,149,78,626,149,2014-10-01T05:05:00,37,28089849,158536
OK,153,76,626,153,2014-10-01T05:10:00,45,28090298,158536
OK,155,75,626,155,2014-10-01T05:15:00,37,28090642,158536
OK,154,76,626,154,2014-10-01T05:20:00,29,28091091,158536
OK,155,75,626,155,2014-10-01T05:25:00,40,28091540,158536
OK,161,72,626,161,2014-10-01T05:30:00,49,28091957,158536
OK,156,75,626,156,2014-10-01T05:35:00,45,28092406,158536
OK,150,78,626,150,2014-10-01T05:40:00,43,28092850,158536
OK,152,77,626,152,2014-10-01T05:45:00,38,28093291,158536
OK,158,74,626,158,2014-10-01T05:50:00,49,28093722,158536
OK,158,74,626,158,2014-10-01T05:55:00,39,28094171,158536
OK,149,78,626,149,2014-10-01T06:00:00,36,28094582,158536
OK,156,75,626,156,2014-10-01T06:05:00,44,28095027,158536
OK,147,79,626,147,2014-10-01T06:10:00,20,28095474,158536
OK,146,80,626,146,2014-10-01T06:15:00,27,28095923,158536
OK,140,83,626,140,2014-10-01T06:20:00,25,28096336,158536
OK,140,83,626,140,2014-10-01T06:25:00,25,28096785,158536
OK,141,83,626,141,2014-10-01T06:30:00,26,28097219,158536
OK,141,83,626,141,2014-10-01T06:35:00,19,28097668,158536
OK,140,83,626,140,2014-10-01T06:40:00,19,28098117,158536
OK,141,83,626,141,2014-10-01T06:45:00,22,28098554,158536
OK,136,86,626,136,2014-10-01T06:50:00,19,28098998,158536
OK,137,85,626,137,2014-10-01T06:55:00,24,28099446,158536
OK,136,86,626,136,2014-10-01T07:00:00,23,28099789,158536
OK,131,89,626,131,2014-10-01T07:05:00,15,28100238,158536
OK,124,94,626,124,2014-10-01T07:10:00,14,28100545,158536
OK,135,86,626,135,2014-10-01T07:15:00,16,28100994,158536
OK,137,85,626,137,2014-10-01T07:20:00,30,28101365,158536
OK,130,90,626,130,2014-10-01T07:25:00,23,28101814,158536
OK,141,83,626,141,2014-10-01T07:30:00,16,28102250,158536
OK,146,80,626,146,2014-10-01T07:35:00,19,28102699,158536
OK,140,83,626,140,2014-10-01T07:40:00,23,28103127,158536
OK,138,84,626,138,2014-10-01T07:45:00,19,28103573,158536
OK,127,92,626,127,2014-10-01T07:50:00,20,28104018,158536
OK,135,86,626,135,2014-10-01T07:55:00,25,28104463,158536
OK,145,80,626,145,2014-10-01T08:00:00,21,28104904,158536
OK,137,85,626,137,2014-10-01T08:05:00,22,28105349,158536
OK,132,88,626,132,2014-10-01T08:10:00,17,28105789,158536
OK,134,87,626,134,2014-10-01T08:15:00,9,28106238,158536
OK,131,89,626,131,2014-10-01T08:20:00,12,28106675,158536
OK,135,86,626,135,2014-10-01T08:25:00,11,28107081,158536
OK,138,84,626,138,2014-10-01T08:30:00,13,28107513,158536
OK,139,84,626,139,2014-10-01T08:35:00,15,28107962,158536
OK,134,87,626,134,2014-10-01T08:40:00,14,28108401,158536
OK,128,91,626,128,2014-10-01T08:45:00,8,28108850,158536
OK,121,96,626,121,2014-10-01T08:50:00,4,28109278,158536
OK,137,85,626,137,2014-10-01T08:55:00,7,28109727,158536
OK,137,85,626,137,2014-10-01T09:00:00,9,28110070,158536
OK,137,85,626,137,2014-10-01T09:05:00,6,28110519,158536
OK,136,86,626,136,2014-10-01T09:10:00,9,28110942,158536
OK,134,87,626,134,2014-10-01T09:15:00,8,28111391,158536
OK,136,86,626,136,2014-10-01T09:20:00,9,28111820,158536
OK,139,84,626,139,2014-10-01T09:25:00,13,28112269,158536
OK,149,78,626,149,2014-10-01T09:30:00,12,28112610,158536
OK,143,81,626,143,2014-10-01T09:35:00,12,28113059,158536
OK,133,88,626,133,2014-10-01T09:40:00,12,28113483,158536
OK,130,90,626,130,2014-10-01T09:45:00,6,28113932,158536
OK,127,92,626,127,2014-10-01T09:50:00,5,28114364,158536
OK,128,91,626,128,2014-10-01T09:55:00,7,28114813,158536
OK,146,80,626,146,2014-10-01T10:00:00,11,28115167,158536
OK,151,77,626,151,2014-10-01T10:05:00,12,28115616,158536
OK,129,90,626,129,2014-10-01T10:10:00,5,28116028,158536
OK,157,74,626,157,2014-10-01T10:15:00,5,28116477,158536
OK,157,74,626,157,2014-10-01T10:20:00,6,28116885,158536
OK,157,74,626,157,2014-10-01T10:25:00,4,28117334,158536
OK,147,79,626,147,2014-10-01T10:30:00,11,28117759,158536
OK,134,87,626,134,2014-10-01T10:35:00,20,28118208,158536
OK,124,94,626,124,2014-10-01T10:40:00,14,28118653,158536
OK,126,93,626,126,2014-10-01T10:45:00,10,28119100,158536
OK,124,94,626,124,2014-10-01T10:50:00,11,28119544,158536
OK,125,93,626,125,2014-10-01T10:55:00,14,28119992,158536
OK,139,84,626,139,2014-10-01T11:00:00,8,28120440,158536
OK,131,89,626,131,2014-10-01T11:05:00,7,28120889,158536
OK,131,89,626,131,2014-10-01T11:10:00,9,28121272,158536
OK,132,88,626,132,2014-10-01T11:15:00,11,28121721,158536
OK,138,84,626,138,2014-10-01T11:20:00,10,28122159,158536
OK,134,87,626,134,2014-10-01T11:25:00,13,28122608,158536
OK,131,89,626,131,2014-10-01T11:30:00,15,28123049,158536
OK,137,85,626,137,2014-10-01T11:35:00,7,28123498,158536
OK,125,93,626,125,2014-10-01T11:40:00,5,28123930,158536
OK,134,87,626,134,2014-10-01T11:45:00,6,28124379,158536
OK,144,81,626,144,2014-10-01T11:50:00,6,28124781,158536
OK,137,85,626,137,2014-10-01T11:55:00,10,28125230,158536
OK,125,93,626,125,2014-10-01T12:00:00,15,28125659,158536
OK,128,91,626,128,2014-10-01T12:05:00,13,28126108,158536
OK,133,88,626,133,2014-10-01T12:10:00,9,28126460,158536
OK,129,90,626,129,2014-10-01T12:15:00,12,28126909,158536
OK,125,93,626,125,2014-10-01T12:20:00,11,28127358,158536
OK,127,92,626,127,2014-10-01T12:25:00,7,28127807,158536
OK,135,86,626,135,2014-10-01T12:30:00,10,28128235,158536
OK,131,89,626,131,2014-10-01T12:35:00,7,28128684,158536
OK,142,82,626,142,2014-10-01T12:40:00,10,28129119,158536
OK,141,83,626,141,2014-10-01T12:45:00,15,28129568,158536
OK,130,90,626,130,2014-10-01T12:50:00,19,28130002,158536
OK,125,93,626,125,2014-10-01T12:55:00,17,28130451,158536
OK,118,99,626,118,2014-10-01T13:00:00,14,28130879,158536
OK,117,100,626,117,2014-10-01T13:05:00,7,28131328,158536
OK,116,101,626,116,2014-10-01T13:10:00,0,28131765,158536
OK,139,84,626,139,2014-10-01T13:15:00,6,28132214,158536
OK,132,88,626,132,2014-10-01T13:20:00,6,28132652,158536
OK,133,88,626,133,2014-10-01T13:25:00,7,28133099,158536
OK,131,89,626,131,2014-10-01T13:30:00,7,28133537,158536
OK,129,90,626,129,2014-10-01T13:35:00,10,28133986,158536
OK,145,80,626,145,2014-10-01T13:40:00,16,28134425,158536
OK,140,83,626,140,2014-10-01T13:45:00,12,28134874,158536
OK,133,88,626,133,2014-10-01T13:50:00,17,28135293,158536
OK,133,88,626,133,2014-10-01T13:55:00,21,28135742,158536
OK,133,88,626,133,2014-10-01T14:00:00,15,28136179,158536
OK,133,88,626,133,2014-10-01T14:05:00,7,28136628,158536
OK,129,90,626,129,2014-10-01T14:10:00,16,28137068,158536
OK,123,95,626,123,2014-10-01T14:15:00,16,28137517,158536
OK,125,93,626,125,2014-10-01T14:20:00,19,28137951,158536
OK,132,88,626,132,2014-10-01T14:25:00,19,28138400,158536
OK,133,88,626,133,2014-10-01T14:30:00,10,28138828,158536
OK,137,85,626,137,2014-10-01T14:35:00,13,28139277,158536
OK,125,93,626,125,2014-10-01T14:40:00,12,28139688,158536
OK,126,93,626,126,2014-10-01T14:45:00,12,28140137,158536
OK,131,89,626,131,2014-10-01T14:50:00,13,28140579,158536
OK,133,88,626,133,2014-10-01T14:55:00,17,28141028,158536
OK,132,88,626,132,2014-10-01T15:00:00,14,28141454,158536
OK,124,94,626,124,2014-10-01T15:05:00,14,28141903,158536
OK,122,96,626,122,2014-10-01T15:10:00,12,28142331,158536
OK,123,95,626,123,2014-10-01T15:15:00,13,28142780,158536
OK,123,95,626,123,2014-10-01T15:20:00,18,28143207,158536
OK,123,95,626,123,2014-10-01T15:25:00,17,28143656,158536
OK,121,96,626,121,2014-10-01T15:30:00,12,28144104,158536
OK,123,95,626,123,2014-10-01T15:35:00,13,28144553,158536
OK,122,96,626,122,2014-10-01T15:40:00,11,28144974,158536
OK,126,93,626,126,2014-10-01T15:45:00,9,28145388,158536
OK,119,98,626,119,2014-10-01T15:50:00,7,28145837,158536
OK,123,95,626,123,2014-10-01T15:55:00,10,28146286,158536
OK,121,96,626,121,2014-10-01T16:00:00,10,28146735,158536
OK,121,96,626,121,2014-10-01T16:05:00,8,28147143,158536
OK,124,94,626,124,2014-10-01T16:10:00,5,28147587,158536
OK,124,94,626,124,2014-10-01T16:15:00,5,28148036,158536
OK,120,97,626,120,2014-10-01T16:20:00,10,28148437,158536
OK,119,98,626,119,2014-10-01T16:25:00,7,28148886,158536
OK,125,93,626,125,2014-10-01T16:30:00,4,28149325,158536
OK,130,90,626,130,2014-10-01T16:35:00,1,28149774,158536
OK,114,102,626,114,2014-10-01T16:40:00,4,28150200,158536
OK,123,95,626,123,2014-10-01T16:45:00,2,28150649,158536
OK,119,98,626,119,2014-10-01T16:50:00,2,28151067,158536
OK,116,101,626,116,2014-10-01T16:55:00,5,28151516,158536
OK,131,89,626,131,2014-10-01T17:05:00,4,28151965,158536
OK,139,84,626,139,2014-10-01T17:10:00,8,28152414,158536
OK,141,83,626,141,2014-10-01T17:15:00,6,28152860,158536
OK,130,90,626,130,2014-10-01T17:20:00,3,28153307,158536
OK,130,90,626,130,2014-10-01T17:25:00,5,28153756,158536
OK,130,90,626,130,2014-10-01T17:30:00,3,28154166,158536
OK,124,94,626,124,2014-10-01T17:35:00,4,28154615,158536
OK,124,94,626,124,2014-10-01T17:40:00,4,28155057,158536
OK,129,90,626,129,2014-10-01T17:45:00,0,28155505,158536
OK,151,77,626,151,2014-10-01T17:50:00,1,28155923,158536
OK,138,84,626,138,2014-10-01T17:55:00,4,28156372,158536
OK,130,90,626,130,2014-10-01T18:00:00,4,28156820,158536
OK,127,92,626,127,2014-10-01T18:05:00,3,28157259,158536
OK,125,93,626,125,2014-10-01T18:10:00,6,28157689,158536
OK,123,95,626,123,2014-10-01T18:15:00,3,28158137,158536
OK,149,78,626,149,2014-10-01T18:20:00,1,28158581,158536
OK,136,86,626,136,2014-10-01T18:25:00,2,28159027,158536
OK,135,86,626,135,2014-10-01T18:30:00,5,28159473,158536
OK,126,93,626,126,2014-10-01T18:35:00,4,28159808,158536
OK,128,91,626,128,2014-10-01T18:40:00,4,28160257,158536
OK,128,91,626,128,2014-10-01T18:45:00,3,28160706,158536
OK,122,96,626,122,2014-10-01T18:50:00,2,28161144,158536
OK,117,100,626,117,2014-10-01T18:55:00,1,28161593,158536
OK,117,100,626,117,2014-10-01T19:00:00,0,28162010,158536
OK,129,90,626,129,2014-10-01T19:05:00,1,28162459,158536
OK,129,90,626,129,2014-10-01T19:10:00,1,28162853,158536
OK,121,96,626,121,2014-10-01T19:15:00,2,28163292,158536
OK,126,93,626,126,2014-10-01T19:20:00,5,28163740,158536
OK,157,74,626,157,2014-10-01T19:25:00,8,28164189,158536
OK,153,76,626,153,2014-10-01T19:30:00,8,28164620,158536
OK,128,91,626,128,2014-10-01T19:35:00,4,28165069,158536
OK,125,93,626,125,2014-10-01T19:40:00,5,28165494,158536
OK,117,100,626,117,2014-10-01T19:45:00,3,28165942,158536
OK,106,110,626,106,2014-10-01T19:50:00,0,28166383,158536
OK,151,77,626,151,2014-10-01T19:55:00,2,28166745,158536
OK,144,81,626,144,2014-10-01T20:00:00,3,28167194,158536
OK,130,90,626,130,2014-10-01T20:05:00,3,28167623,158536
OK,141,83,626,141,2014-10-01T20:10:00,4,28168056,158536
OK,130,90,626,130,2014-10-01T20:15:00,3,28168505,158536
OK,129,90,626,129,2014-10-01T20:20:00,1,28168950,158536
OK,127,92,626,127,2014-10-01T20:25:00,1,28169399,158536
OK,134,87,626,134,2014-10-01T20:30:00,1,28169847,158536
OK,136,86,626,136,2014-10-01T20:35:00,2,28170273,158536
OK,133,88,626,133,2014-10-01T20:40:00,2,28170718,158536
OK,128,91,626,128,2014-10-01T20:45:00,0,28171166,158536
OK,128,91,626,128,2014-10-01T20:50:00,0,28171603,158536
OK,135,86,626,135,2014-10-01T20:55:00,3,28172049,158536
OK,133,88,626,133,2014-10-01T21:00:00,2,28172497,158536
OK,133,88,626,133,2014-10-01T21:05:00,0,28172943,158536
OK,132,88,626,132,2014-10-01T21:10:00,1,28173389,158536
OK,120,97,626,120,2014-10-01T21:15:00,1,28173838,158536
OK,123,95,626,123,2014-10-01T21:20:00,2,28174279,158536
OK,127,92,626,127,2014-10-01T21:25:00,1,28174728,158536
OK,175,66,626,175,2014-10-01T21:30:00,1,28175154,158536
OK,175,66,626,175,2014-10-01T21:35:00,1,28175550,158536
OK,106,110,626,106,2014-10-01T21:40:00,1,28175999,158536
OK,106,110,626,106,2014-10-01T21:45:00,1,28176448,158536
OK,106,110,626,106,2014-10-01T21:50:00,0,28176897,158536
OK,106,110,626,106,2014-10-01T21:55:00,0,28177253,158536
OK,106,110,626,106,2014-10-01T22:00:00,0,28177693,158536
OK,112,104,626,112,2014-10-01T22:05:00,2,28178139,158536
OK,122,96,626,122,2014-10-01T22:10:00,3,28178588,158536
OK,118,99,626,118,2014-10-01T22:15:00,1,28179035,158536
OK,147,79,626,147,2014-10-01T22:20:00,3,28179469,158536
OK,153,76,626,153,2014-10-01T22:25:00,2,28179912,158536
OK,153,76,626,153,2014-10-01T22:30:00,0,28180359,158536
OK,144,81,626,144,2014-10-01T22:35:00,1,28180757,158536
OK,144,81,626,144,2014-10-01T22:40:00,1,28181206,158536
OK,111,105,626,111,2014-10-01T22:45:00,1,28181630,158536
OK,111,105,626,111,2014-10-01T22:50:00,0,28182078,158536
OK,111,105,626,111,2014-10-01T22:55:00,0,28182525,158536
OK,111,105,626,111,2014-10-01T23:00:00,0,28182974,158536
OK,111,105,626,111,2014-10-01T23:05:00,0,28183391,158536
OK,111,105,626,111,2014-10-01T23:10:00,0,28183824,158536
OK,111,105,626,111,2014-10-01T23:15:00,0,28184269,158536
OK,111,105,626,111,2014-10-01T23:20:00,0,28184718,158536
OK,111,105,626,111,2014-10-01T23:25:00,0,28185153,158536
OK,111,105,626,111,2014-10-01T23:30:00,0,28185601,158536
OK,111,105,626,111,2014-10-01T23:35:00,0,28186032,158536
OK,158,74,626,158,2014-10-01T23:40:00,1,28186424,158536
OK,158,74,626,158,2014-10-01T23:45:00,2,28186873,158536
OK,159,73,626,159,2014-10-01T23:50:00,1,28187271,158536
OK,124,94,626,124,2014-10-01T23:55:00,1,28187713,158536
OK,130,90,626,130,2014-10-02T00:00:00,2,28188162,158536
OK,136,86,626,136,2014-10-02T00:05:00,1,28188603,158536
OK,136,86,626,136,2014-10-02T00:10:00,0,28189039,158536
OK,136,86,626,136,2014-10-02T00:15:00,0,28189488,158536
OK,136,86,626,136,2014-10-02T00:20:00,0,28189910,158536
OK,136,86,626,136,2014-10-02T00:25:00,0,28190357,158536
OK,136,86,626,136,2014-10-02T00:30:00,0,28190712,158536
OK,163,71,626,163,2014-10-02T00:35:00,0,28191161,158536
OK,163,71,626,163,2014-10-02T00:40:00,0,28191610,158536
OK,163,71,626,163,2014-10-02T00:45:00,0,28191916,158536
OK,163,71,626,163,2014-10-02T00:50:00,0,28192365,158536
OK,163,71,626,163,2014-10-02T00:55:00,0,28192798,158536
OK,163,71,626,163,2014-10-02T01:00:00,0,28193233,158536
OK,163,71,626,163,2014-10-02T01:05:00,0,28193609,158536
OK,163,71,626,163,2014-10-02T01:10:00,0,28194058,158536
OK,163,71,626,163,2014-10-02T01:15:00,0,28194507,158536
OK,163,71,626,163,2014-10-02T01:25:00,0,28195192,158536
OK,163,71,626,163,2014-10-02T01:30:00,0,28195641,158536
OK,163,71,626,163,2014-10-02T01:35:00,0,28196090,158536
OK,163,71,626,163,2014-10-02T01:40:00,0,28196374,158536
OK,134,87,626,134,2014-10-02T01:45:00,0,28196823,158536
OK,134,87,626,134,2014-10-02T01:50:00,0,28197246,158536
OK,134,87,626,134,2014-10-02T01:55:00,0,28197695,158536
OK,134,87,626,134,2014-10-02T02:00:00,0,28198143,158536
OK,134,87,626,134,2014-10-02T02:05:00,0,28198591,158536
OK,134,87,626,134,2014-10-02T02:10:00,0,28199040,158536
OK,134,87,626,134,2014-10-02T02:15:00,0,28199412,158536
OK,134,87,626,134,2014-10-02T02:20:00,0,28199854,158536
OK,134,87,626,134,2014-10-02T02:25:00,0,28200296,158536
OK,158,74,626,158,2014-10-02T02:30:00,2,28200739,158536
OK,158,74,626,158,2014-10-02T02:35:00,0,28201188,158536
OK,158,74,626,158,2014-10-02T02:45:00,0,28201619,158536
OK,158,74,626,158,2014-10-02T02:50:00,0,28202068,158536
OK,158,74,626,158,2014-10-02T02:55:00,0,28202517,158536
OK,153,76,626,153,2014-10-02T03:00:00,2,28202959,158536
OK,164,71,626,164,2014-10-02T03:05:00,0,28203407,158536
OK,164,71,626,164,2014-10-02T03:15:00,0,28203842,158536
OK,157,74,626,157,2014-10-02T03:30:00,0,28204291,158536
OK,134,87,626,134,2014-10-02T03:35:00,5,28204740,158536
OK,124,94,626,124,2014-10-02T03:40:00,1,28205189,158536
OK,138,84,626,138,2014-10-02T03:45:00,9,28205617,158536
OK,106,110,626,106,2014-10-02T03:50:00,0,28206054,158536
OK,106,110,626,106,2014-10-02T03:55:00,0,28206447,158536
OK,125,93,626,125,2014-10-02T04:00:00,6,28206896,158536
OK,129,90,626,129,2014-10-02T04:05:00,0,28207345,158536
OK,168,69,626,168,2014-10-02T04:10:00,4,28207764,158536
OK,169,69,626,169,2014-10-02T04:15:00,2,28208213,158536
OK,129,90,626,129,2014-10-02T04:20:00,5,28208640,158536
OK,150,78,626,150,2014-10-02T04:25:00,1,28209089,158536
OK,135,86,626,135,2014-10-02T04:30:00,19,28209527,158536
OK,135,86,626,135,2014-10-02T04:35:00,8,28209976,158536
OK,140,83,626,140,2014-10-02T04:40:00,21,28210399,158536
OK,134,87,626,134,2014-10-02T04:45:00,0,28210848,158536
OK,134,87,626,134,2014-10-02T04:50:00,0,28211273,158536
OK,148,79,626,148,2014-10-02T04:55:00,24,28211717,158536
OK,147,79,626,147,2014-10-02T05:00:00,9,28212095,158536
OK,158,74,626,158,2014-10-02T05:05:00,21,28212544,158536
OK,148,79,626,148,2014-10-02T05:10:00,4,28212973,158536
OK,144,81,626,144,2014-10-02T05:15:00,23,28213422,158536
OK,163,71,626,163,2014-10-02T05:20:00,5,28213860,158536
OK,160,73,626,160,2014-10-02T05:25:00,28,28214309,158536
OK,166,70,626,166,2014-10-02T05:30:00,9,28214722,158536
OK,170,68,626,170,2014-10-02T05:35:00,0,28215171,158536
OK,143,81,626,143,2014-10-02T05:40:00,26,28215587,158536
OK,159,73,626,159,2014-10-02T05:45:00,9,28216036,158536
OK,158,74,626,158,2014-10-02T05:50:00,0,28216375,158536
OK,143,81,626,143,2014-10-02T05:55:00,32,28216815,158536
OK,139,84,626,139,2014-10-02T06:00:00,22,28217262,158536
OK,125,93,626,125,2014-10-02T06:05:00,15,28217711,158536
OK,117,100,626,117,2014-10-02T06:10:00,3,28218150,158536
OK,148,79,626,148,2014-10-02T06:15:00,23,28218599,158536
OK,144,81,626,144,2014-10-02T06:20:00,28,28219019,158536
OK,140,83,626,140,2014-10-02T06:25:00,31,28219468,158536
OK,135,86,626,135,2014-10-02T06:30:00,34,28219841,158536
OK,145,80,626,145,2014-10-02T06:35:00,31,28220290,158536
OK,140,83,626,140,2014-10-02T06:40:00,27,28220724,158536
OK,140,83,626,140,2014-10-02T06:45:00,29,28221173,158536
OK,129,90,626,129,2014-10-02T07:00:00,24,28221840,158536
OK,132,88,626,132,2014-10-02T07:05:00,23,28221986,158536
OK,135,86,626,135,2014-10-02T07:10:00,11,28222434,158536
OK,132,88,626,132,2014-10-02T07:15:00,2,28222883,158536
OK,135,86,626,135,2014-10-02T07:20:00,0,28223314,158536
OK,134,87,626,134,2014-10-02T07:25:00,13,28223749,158536
OK,147,79,626,147,2014-10-02T07:30:00,3,28224197,158536
OK,135,86,626,135,2014-10-02T07:35:00,22,28224552,158536
OK,133,88,626,133,2014-10-02T07:40:00,8,28225001,158536
OK,133,88,626,133,2014-10-02T07:50:00,13,28225772,158536
OK,136,86,626,136,2014-10-02T07:55:00,15,28226221,158536
OK,132,88,626,132,2014-10-02T08:00:00,5,28226662,158536
OK,136,86,626,136,2014-10-02T08:05:00,12,28227111,158536
OK,135,86,626,135,2014-10-02T08:10:00,2,28227526,158536
OK,124,94,626,124,2014-10-02T08:15:00,8,28227975,158536
OK,119,98,626,119,2014-10-02T08:20:00,2,28228334,158536
OK,134,87,626,134,2014-10-02T08:25:00,9,28228783,158536
OK,141,83,626,141,2014-10-02T08:30:00,3,28229193,158536
OK,124,94,626,124,2014-10-02T08:35:00,19,28229642,158536
OK,124,94,626,124,2014-10-02T08:40:00,5,28229992,158536
OK,136,86,626,136,2014-10-02T08:45:00,0,28230441,158536
OK,129,90,626,129,2014-10-02T08:50:00,8,28230807,158536
OK,127,92,626,127,2014-10-02T08:55:00,2,28231254,158536
OK,125,93,626,125,2014-10-02T09:00:00,5,28231679,158536
OK,122,96,626,122,2014-10-02T09:05:00,1,28232128,158536
OK,148,79,626,148,2014-10-02T09:15:00,7,28232470,158536
OK,161,72,626,161,2014-10-02T09:20:00,3,28232919,158536
OK,129,90,626,129,2014-10-02T09:25:00,9,28233368,158536
OK,138,84,626,138,2014-10-02T09:30:00,3,28233792,158536
OK,130,90,626,130,2014-10-02T09:35:00,9,28234241,158536
OK,127,92,626,127,2014-10-02T09:40:00,4,28234574,158536
OK,151,77,626,151,2014-10-02T09:45:00,7,28235023,158536
OK,153,76,626,153,2014-10-02T09:50:00,5,28235450,158536
OK,134,87,626,134,2014-10-02T09:55:00,2,28235899,158536
OK,137,85,626,137,2014-10-02T10:00:00,0,28236342,158536
OK,137,85,626,137,2014-10-02T10:05:00,0,28236789,158536
OK,135,86,626,135,2014-10-02T10:10:00,7,28237191,158536
OK,121,96,626,121,2014-10-02T10:15:00,9,28237639,158536
OK,130,90,626,130,2014-10-02T10:20:00,17,28238088,158536
OK,133,88,626,133,2014-10-02T10:25:00,12,28238535,158536
OK,141,83,626,141,2014-10-02T10:30:00,0,28238976,158536
OK,130,90,626,130,2014-10-02T10:35:00,16,28239425,158536
OK,122,96,626,122,2014-10-02T10:40:00,13,28239855,158536
OK,122,96,626,122,2014-10-02T10:45:00,16,28240304,158536
OK,122,96,626,122,2014-10-02T10:50:00,4,28240748,158536
OK,134,87,626,134,2014-10-02T10:55:00,12,28241197,158536
OK,137,85,626,137,2014-10-02T11:00:00,5,28241629,158536
OK,137,85,626,137,2014-10-02T11:05:00,0,28242077,158536
OK,122,96,626,122,2014-10-02T11:10:00,9,28242473,158536
OK,122,96,626,122,2014-10-02T11:15:00,7,28242922,158536
OK,131,89,626,131,2014-10-02T11:20:00,12,28243371,158536
OK,131,89,626,131,2014-10-02T11:25:00,4,28243696,158536
OK,127,92,626,127,2014-10-02T11:30:00,0,28244134,158536
OK,129,90,626,129,2014-10-02T11:35:00,8,28244563,158536
OK,120,97,626,120,2014-10-02T11:40:00,0,28245012,158536
OK,120,97,626,120,2014-10-02T11:45:00,0,28245461,158536
OK,132,88,626,132,2014-10-02T11:50:00,18,28245867,158536
OK,126,93,626,126,2014-10-02T11:55:00,13,28246316,158536
OK,128,91,626,128,2014-10-02T12:00:00,21,28246753,158536
OK,121,96,626,121,2014-10-02T12:05:00,13,28247202,158536
OK,117,100,626,117,2014-10-02T12:10:00,0,28247648,158536
OK,131,89,626,131,2014-10-02T12:15:00,15,28248078,158536
OK,137,85,626,137,2014-10-02T12:20:00,10,28248527,158536
OK,119,98,626,119,2014-10-02T12:25:00,5,28248974,158536
OK,118,99,626,118,2014-10-02T12:30:00,2,28249402,158536
OK,136,86,626,136,2014-10-02T12:35:00,7,28249846,158536
OK,123,95,626,123,2014-10-02T12:40:00,3,28250251,158536
OK,130,90,626,130,2014-10-02T12:45:00,13,28250663,158536
OK,128,91,626,128,2014-10-02T12:50:00,7,28251443,158536
OK,125,93,626,125,2014-10-02T13:00:00,9,28251483,158536
OK,122,96,626,122,2014-10-02T13:20:00,8,28251523,158536
OK,130,90,626,130,2014-10-02T13:30:00,10,28251988,158536
OK,134,87,626,134,2014-10-02T13:35:00,4,28252125,158536